Regional Weather Roundup
Issued by NWS

Home | Current Version | Previous Version | Graphics & Text | Print | Product List | Glossary On
Versions: 1 2 3 4 5 6 7 8 9 10 11 12 13 14 15 16 17 18 19 20 21 22 23 24 25 26 27 28 29 30 31 32 33 34 35 36 37 38 39 40 41 42 43 44 45 46 47 48 49 50
835
ASUS43 KIND 191409
RWRIN

WEATHER ROUNDUP FOR INDIANA
NATIONAL WEATHER SERVICE INDIANAPOLIS IN
900 AM EST SUN FEB 19 2017

NOTE: "FAIR" INDICATES FEW OR NO CLOUDS BELOW 12,000 FEET WITH NO
SIGNIFICANT WEATHER AND/OR OBSTRUCTIONS TO VISIBILITY.

* - STATION DOES NOT REPORT WEATHER SUCH AS PRECIPITATION OR FOG.

+ - STATION NOT QUALITY CONTROLLED BY THE NATIONAL WEATHER SERVICE.
    USE DATA WITH CAUTION...ESPECIALLY DEWPOINT AND RELATIVE
    HUMIDITY OBSERVATIONS.

INZ001>003-010>013-019-020-191500-
NORTHWEST INDIANA

CITY           SKY/WX    TMP DP  RH WIND       PRES   REMARKS
GARY /AIRPORT/ SUNNY     37  36  93 CALM      30.04R
KNOX *+          N/A     36  32  87 S5        30.03R VSB 1/2
LA PORTE +     SUNNY     39  37  93 CALM      30.04R
MICHIGAN CITY+ SUNNY     34  34 100 CALM      30.05R
MONTICELLO +   FOG       44  42  95 SW5       30.04R VSB 1
RENSSELAER +   FOG       39  39 100 SW3       30.05R VSB<1/4
VALPARAISO     SUNNY     45  42  89 CALM      30.04R FOG

$$

LMZ046-743>745-191500-
SOUTHERN LAKE MICHIGAN

STATION/POSITION TIME  TEMP    WIND        PRES    WAVE
                       AIR SEA DIR/SP/G            HT
                 (UTC) (F)     (DEG/KT/KT) (MB)    (FT)
BURNS HARBOR     1340   41     200/  4/  5 1017.6R
MICHIGAN CITY    1340   43     200/  3/  3   N/A

$$

INZ004-005-014>016-021>024-191500-
NORTH CENTRAL INDIANA

CITY           SKY/WX    TMP DP  RH WIND       PRES   REMARKS
ELKHART        SUNNY     36  32  87 CALM      30.03R
GOSHEN         SUNNY     40  38  93 S5        30.03R FOG
LOGANSPORT +   CLOUDY    43  43 100 SW6       30.06R FOG
PERU/GRISSOM   CLOUDY    45  45 100 W7        30.03R FOG
ROCHESTER +    FOG       43 N/A N/A SW7       30.05R VSB<1/4
SOUTH BEND     SUNNY     39  37  92 SW3       30.04R
WARSAW +       FOG       37  37 100 SW3       30.03R VSB<1/4

$$

INZ006>009-017-018-025>027-191500-
NORTHEAST INDIANA

CITY           SKY/WX    TMP DP  RH WIND       PRES   REMARKS
ANGOLA *+      SUNNY     39  39 100 NW5       30.01R
AUBURN +       SUNNY     43  39  87 SW5       30.03R
FORT WAYNE     FOG       44  43  96 W10       30.03R VSB 1/4
HUNTINGTON +   CLOUDY    44  43  97 W8        30.04R FOG
KENDALLVILLE + SUNNY     41  41  98 W6        30.01R

$$

INZ028-029-035-036-043>045-051>053-191500-
WEST CENTRAL INDIANA

CITY           SKY/WX    TMP DP  RH WIND       PRES   REMARKS
GREENCASTLE +  CLOUDY    48  46  93 W3        30.06R FOG
LAFAYETTE      CLOUDY    47  45  93 CALM      30.05R FOG
TERRE HAUTE    CLOUDY    51  46  83 CALM      30.07R

$$

INZ030>032-037>040-046>048-054>057-064-065-191500-
CENTRAL INDIANA

CITY           SKY/WX    TMP DP  RH WIND       PRES   REMARKS
CP ATTERBURY + CLOUDY    46  45  93 SW3       30.08R
COLUMBUS       CLOUDY    46  46 100 CALM      30.06R FOG
FRANKFORT +    CLOUDY    50  47  90 W7        30.06R FOG
GREENWOOD *+   CLOUDY    49  47  94 NW5       30.06R
INDIANAPOLIS   CLOUDY    49  45  86 W5        30.06R FOG
-EAGLE CREEK   CLOUDY    49  45  86 VRB3      30.05R FOG
KOKOMO +       CLOUDY    46  44  93 W7        30.05R FOG
MARION +       CLOUDY    46  44  93 W7        30.05R FOG
MT COMFORT *+  CLOUDY    48  45  87 NW5       30.06R
SHELBYVILLE    CLOUDY    49  45  86 W6        30.06R FOG
ZIONSVILLE +   CLOUDY    47  45  92 W5        30.06R FOG

$$

INZ033-034-041-042-049-050-058-059-191500-
EAST CENTRAL INDIANA

CITY           SKY/WX    TMP DP  RH WIND       PRES   REMARKS
MUNCIE         CLOUDY    49  45  86 W8        30.04R FOG

$$

INZ060-061-067>069-081>083-085>088-191500-
SOUTHWEST INDIANA

CITY           SKY/WX    TMP DP  RH WIND       PRES   REMARKS
EVANSVILLE     CLOUDY    51  48  89 CALM      30.10R
HUNTINGBURG *+ CLOUDY    49  48  97 W3        30.09R FOG
WASHINGTON +   CLOUDY    48  47  94 CALM      30.08R FOG

$$

INZ062-063-066-070>080-084-089>092-191500-
SOUTH CENTRAL AND SOUTHEAST INDIANA

CITY           SKY/WX    TMP DP  RH WIND       PRES   REMARKS
BEDFORD +      CLOUDY    48  46  93 SW3       30.07  FOG
BLOOMINGTON    CLOUDY    48  45  89 SW3       30.06R FOG
MADISON *+     CLOUDY    48  46  93 CALM      30.08R
NORTH VERNON + CLOUDY   N/A N/A N/A SW3       30.06R FOG
SEYMOUR +      CLOUDY    50  50 100 W5        30.06R FOG

$$





USA.gov is the U.S. government's official web portal to all federal, state and local government web resources and services.